GW1804 Weather Reports


time (UTC)temp
C
wind
direction
speed
KPH
gust
KPH
rain 1hr
cm
rain 24hr
cm
rain mn
cm
humidity
%
barometer
mb
20260905085532 17 0 0.0 0.0 0.00 0.00 0.00 88 1012.9
20260905085035 17 0 0.0 0.0 0.00 0.00 0.00 88 1013.0
20260905084603 17 0 0.0 0.0 0.00 0.00 0.00 88 1013.0
20260905084031 17 0 0.0 0.0 0.00 0.00 0.00 88 1013.2
20260905083531 17 0 0.0 0.0 0.00 0.00 0.00 88 1013.2
20260905083058 17 0 0.0 1.6 0.00 0.00 0.00 87 1013.3
20260905082533 17 0 0.0 1.6 0.00 0.00 0.00 87 1013.2
20260905082032 17 0 0.0 0.0 0.00 0.00 0.00 87 1013.3
20260905081552 17 0 0.0 0.0 0.00 0.00 0.00 87 1013.4
20260905081033 17 0 0.0 0.0 0.00 0.00 0.00 87 1013.5
20260905080532 17 0 0.0 0.0 0.00 0.00 0.00 87 1013.5
20260905080054 17 0 0.0 0.0 0.00 0.00 0.00 86 1013.5
20260905075533 17 0 0.0 0.0 0.00 0.00 0.00 87 1013.6
20260905075034 17 0 0.0 0.0 0.00 0.00 0.00 86 1013.6
20260905074550 18 0 0.0 0.0 0.00 0.00 0.00 87 1013.8
20260905074032 18 0 0.0 0.0 0.00 0.00 0.00 87 1013.7
20260905073534 18 0 0.0 0.0 0.00 0.00 0.00 87 1013.6
20260905073055 18 0 0.0 0.0 0.00 0.00 0.00 87 1013.7
20260905072532 18 0 0.0 0.0 0.00 0.00 0.00 86 1013.6
20260905072033 18 0 0.0 0.0 0.00 0.00 0.00 86 1013.6
20260905071553 18 0 0.0 0.0 0.00 0.00 0.00 86 1013.6
20260905071031 18 0 0.0 0.0 0.00 0.00 0.00 86 1013.6
20260905070534 18 0 0.0 0.0 0.00 0.00 0.00 86 1013.6
20260905070057 18 0 0.0 0.0 0.00 0.00 0.00 86 1013.7
20260905065532 18 0 0.0 0.0 0.00 0.00 0.00 86 1013.8
20260905065035 18 0 0.0 0.0 0.00 0.00 0.00 86 1013.7
20260905064616 18 0 0.0 0.0 0.00 0.00 0.00 86 1013.7
20260905064036 18 0 0.0 0.0 0.00 0.00 0.00 86 1013.7
20260905063536 18 0 0.0 0.0 0.00 0.00 0.00 86 1013.8
20260905063101 18 0 0.0 0.0 0.00 0.00 0.00 86 1013.7
20260905062535 18 0 0.0 0.0 0.00 0.00 0.00 86 1013.7
20260905062035 18 0 0.0 0.0 0.00 0.00 0.00 86 1013.7
20260905061601 18 0 0.0 0.0 0.00 0.00 0.00 86 1013.6
20260905061036 18 0 0.0 0.0 0.00 0.00 0.00 86 1013.6
20260905060535 18 0 0.0 0.0 0.00 0.00 0.00 86 1013.6
20260905060106 18 0 0.0 0.0 0.00 0.00 0.00 86 1013.6
20260905055533 18 0 0.0 0.0 0.00 0.00 0.00 86 1013.6
20260905055035 18 0 0.0 0.0 0.00 0.00 0.00 86 1013.6
20260905054601 18 0 0.0 1.6 0.00 0.00 0.00 86 1013.5
20260905054040 18 0 0.0 1.6 0.00 0.00 0.00 86 1013.5
20260905053536 18 0 0.0 1.6 0.00 0.00 0.00 86 1013.5
20260905053054 18 0 0.0 0.0 0.00 0.00 0.00 85 1013.6
20260905052537 18 0 0.0 0.0 0.00 0.00 0.00 85 1013.6
20260905052036 18 0 0.0 0.0 0.00 0.00 0.00 85 1013.5
20260905051554 18 0 0.0 0.0 0.00 0.00 0.00 85 1013.6
20260905051036 18 0 0.0 0.0 0.00 0.00 0.00 85 1013.6
20260905050536 18 0 0.0 0.0 0.00 0.00 0.00 85 1013.7
20260905050058 19 0 0.0 0.0 0.00 0.00 0.00 84 1013.7
20260905045538 19 0 0.0 0.0 0.00 0.00 0.00 84 1013.6
20260905045035 19 0 0.0 0.0 0.00 0.00 0.00 84 1013.6
20260905044604 19 0 0.0 0.0 0.00 0.00 0.00 84 1013.5
20260905044037 19 0 0.0 0.0 0.00 0.00 0.00 84 1013.5
20260905043535 19 0 0.0 0.0 0.00 0.00 0.00 84 1013.4
20260905043101 19 0 0.0 0.0 0.00 0.00 0.00 84 1013.4
20260905042535 19 0 0.0 0.0 0.00 0.00 0.00 84 1013.1
20260905042036 19 0 0.0 0.0 0.00 0.00 0.00 84 1013.1
20260905041558 19 0 0.0 0.0 0.00 0.00 0.00 84 1013.1
20260905041035 19 0 0.0 1.6 0.00 0.00 0.00 83 1013.2
20260905040535 19 0 0.0 1.6 0.00 0.00 0.00 83 1013.1
20260905035535 19 0 0.0 0.0 0.00 0.00 0.00 83 1013.2
20260905035032 19 0 0.0 1.6 0.00 0.00 0.00 83 1013.1
20260905034605 19 0 0.0 1.6 0.00 0.00 0.00 83 1013.0
20260905034037 19 0 0.0 1.6 0.00 0.00 0.00 83 1013.0
20260905033535 20 0 0.0 1.6 0.00 0.00 0.00 82 1013.0
20260905033103 20 0 0.0 3.2 0.00 0.00 0.00 82 1013.0
20260905032534 20 0 0.0 3.2 0.00 0.00 0.00 82 1012.9
20260905032035 20 0 0.0 3.2 0.00 0.00 0.00 82 1012.8
20260905031555 20 0 0.0 1.6 0.00 0.00 0.00 81 1012.8
20260905031035 20 291 0.0 1.6 0.00 0.00 0.00 81 1012.9
20260905030535 20 0 0.0 3.2 0.00 0.00 0.00 81 1012.8
20260905030117 20 291 0.0 3.2 0.00 0.00 0.00 80 1012.6
20260905025535 20 0 0.0 3.2 0.00 0.00 0.00 80 1012.5
20260905025035 20 291 0.0 3.2 0.00 0.00 0.00 79 1012.4
20260905024605 20 301 0.0 3.2 0.00 0.00 0.00 79 1012.4
20260905024035 20 0 0.0 3.2 0.00 0.00 0.00 78 1012.5
20260905023534 21 0 0.0 3.2 0.00 0.00 0.00 78 1012.5
20260905023104 21 0 0.0 3.2 0.00 0.00 0.00 77 1012.5
20260905022535 21 252 0.0 6.4 0.00 0.00 0.00 77 1012.6
20260905022035 21 0 0.0 6.4 0.00 0.00 0.00 77 1012.6
20260905021604 21 282 1.6 6.4 0.00 0.00 0.00 76 1012.6
20260905021035 21 300 1.6 6.4 0.00 0.00 0.00 75 1012.6
20260905020539 21 307 3.2 6.4 0.00 0.00 0.00 75 1012.6
20260905020107 22 272 3.2 6.4 0.00 0.00 0.00 74 1012.6
20260905015535 22 250 1.6 9.7 0.00 0.00 0.00 73 1012.5
20260905015038 22 294 3.2 9.7 0.00 0.00 0.00 73 1012.6
20260905014601 22 283 1.6 6.4 0.00 0.00 0.00 73 1012.5
20260905014035 22 325 3.2 6.4 0.00 0.00 0.00 72 1012.5
20260905013535 23 280 1.6 6.4 0.00 0.00 0.00 72 1012.4
20260905013056 23 275 1.6 8.0 0.00 0.00 0.00 72 1012.3
20260905012538 23 277 3.2 8.0 0.00 0.00 0.00 71 1012.4
20260905012034 23 256 3.2 9.7 0.00 0.00 0.00 71 1012.4
20260905011556 23 269 3.2 9.7 0.00 0.00 0.00 71 1012.5
20260905011035 23 265 1.6 11.3 0.00 0.00 0.00 71 1012.5
20260905010538 23 309 4.8 11.3 0.00 0.00 0.00 71 1012.6
20260905005535 23 301 1.6 11.3 0.00 0.00 0.00 71 1012.5
20260905005036 23 330 4.8 11.3 0.00 0.00 0.00 71 1012.4
20260905004608 23 239 1.6 11.3 0.00 0.00 0.00 71 1012.5
20260905004036 23 309 3.2 9.7 0.00 0.00 0.00 70 1012.5
20260905003535 23 254 3.2 9.7 0.00 0.00 0.00 70 1012.6
20260905003058 23 303 3.2 14.5 0.00 0.00 0.00 70 1012.6
20260905002534 24 291 4.8 14.5 0.00 0.00 0.00 69 1012.6
20260905002035 24 212 4.8 9.7 0.00 0.00 0.00 68 1012.5
20260905001601 24 224 3.2 9.7 0.00 0.00 0.00 68 1012.6
20260905001035 24 271 4.8 11.3 0.00 0.00 0.00 68 1012.5
20260905000536 25 239 4.8 11.3 0.00 0.00 0.00 67 1012.5
20260905000106 24 267 3.2 9.7 0.00 0.00 0.00 68 1012.5
20260904235534 24 279 1.6 9.7 0.00 0.00 0.00 67 1012.7
20260904235032 24 258 3.2 11.3 0.00 0.00 0.00 68 1012.5
20260904234608 24 283 4.8 11.3 0.00 0.00 0.00 68 1012.5
20260904234038 24 265 3.2 11.3 0.00 0.00 0.00 68 1012.5
20260904233535 24 205 3.2 11.3 0.00 0.00 0.00 69 1012.7
20260904233057 24 248 4.8 16.1 0.00 0.00 0.00 68 1012.7
20260904232535 24 291 6.4 16.1 0.00 0.00 0.00 67 1012.7
20260904232035 24 286 3.2 11.3 0.00 0.00 0.00 68 1012.6
20260904231554 24 295 4.8 12.9 0.00 0.00 0.00 67 1012.7
20260904231035 24 224 3.2 12.9 0.00 0.00 0.00 68 1012.6
20260904230532 24 301 4.8 11.3 0.00 0.00 0.00 68 1012.6
20260904230053 24 279 4.8 11.3 0.00 0.00 0.00 68 1012.6
20260904225531 24 291 4.8 12.9 0.00 0.00 0.00 68 1012.7
20260904225034 24 236 3.2 12.9 0.00 0.00 0.00 69 1012.7
20260904224603 24 319 6.4 12.9 0.00 0.00 0.00 68 1012.8
20260904224035 24 263 4.8 14.5 0.00 0.00 0.00 69 1012.8
20260904223535 24 259 6.4 16.1 0.00 0.00 0.00 68 1012.7
20260904223059 24 301 6.4 17.7 0.00 0.00 0.00 69 1012.7
20260904222537 24 273 6.4 17.7 0.00 0.00 0.00 67 1012.8
20260904222035 24 302 4.8 16.1 0.00 0.00 0.00 68 1012.9
20260904221555 24 304 6.4 16.1 0.00 0.00 0.00 66 1012.9
20260904221035 24 313 6.4 17.7 0.00 0.00 0.00 67 1012.9
20260904220538 24 291 6.4 17.7 0.00 0.00 0.00 68 1013.0
20260904220111 24 310 6.4 16.1 0.00 0.00 0.00 68 1013.0
20260904215531 25 272 6.4 16.1 0.00 0.00 0.00 66 1012.9
20260904215039 25 292 6.4 16.1 0.00 0.00 0.00 65 1013.0
20260904214559 25 233 6.4 14.5 0.00 0.00 0.00 67 1012.9
20260904214035 25 271 6.4 16.1 0.00 0.00 0.00 67 1013.0
20260904213535 25 258 6.4 16.1 0.00 0.00 0.00 67 1013.1
20260904213102 25 236 4.8 12.9 0.00 0.00 0.00 68 1013.1
20260904212535 24 227 6.4 14.5 0.00 0.00 0.00 67 1013.1
20260904212032 24 296 6.4 16.1 0.00 0.00 0.00 68 1013.1
20260904211557 24 235 8.0 16.1 0.00 0.00 0.00 69 1013.1
20260904211035 24 270 8.0 16.1 0.00 0.00 0.00 68 1013.1
20260904210535 24 309 6.4 16.1 0.00 0.00 0.00 68 1013.2
20260904210057 24 249 8.0 16.1 0.00 0.00 0.00 69 1013.2
20260904205533 24 274 8.0 14.5 0.00 0.00 0.00 69 1013.2
20260904205033 24 295 6.4 14.5 0.00 0.00 0.00 67 1013.3
20260904204605 24 322 6.4 17.7 0.00 0.00 0.00 68 1013.4
20260904204035 24 236 6.4 17.7 0.00 0.00 0.00 67 1013.4
20260904203536 24 259 6.4 16.1 0.00 0.00 0.00 69 1013.3
20260904203057 24 273 6.4 14.5 0.00 0.00 0.00 69 1013.4
20260904202535 23 264 6.4 16.1 0.00 0.00 0.00 69 1013.4
20260904202035 23 229 8.0 16.1 0.00 0.00 0.00 68 1013.4
20260904201555 23 267 4.8 14.5 0.00 0.00 0.00 69 1013.4
20260904201034 23 257 6.4 14.5 0.00 0.00 0.00 68 1013.4
20260904200533 23 300 6.4 14.5 0.00 0.00 0.00 70 1013.4
20260904200116 23 265 6.4 16.1 0.00 0.00 0.00 69 1013.4
20260904195532 23 271 8.0 16.1 0.00 0.00 0.00 68 1013.4
20260904195032 23 222 6.4 12.9 0.00 0.00 0.00 69 1013.5
20260904194635 23 232 6.4 14.5 0.00 0.00 0.00 69 1013.5
20260904194032 23 233 6.4 14.5 0.00 0.00 0.00 69 1013.5
20260904193535 23 273 4.8 14.5 0.00 0.00 0.00 69 1013.5
20260904193056 23 239 4.8 14.5 0.00 0.00 0.00 70 1013.6
20260904192534 23 233 6.4 12.9 0.00 0.00 0.00 69 1013.6
20260904192035 23 294 4.8 12.9 0.00 0.00 0.00 70 1013.6
20260904191608 23 290 4.8 16.1 0.00 0.00 0.00 70 1013.6
20260904191038 23 306 6.4 16.1 0.00 0.00 0.00 71 1013.7
20260904190536 23 252 4.8 12.9 0.00 0.00 0.00 70 1013.8
20260904190106 23 324 6.4 12.9 0.00 0.00 0.00 71 1013.9
20260904185531 23 294 4.8 12.9 0.00 0.00 0.00 72 1013.9
20260904185032 23 239 4.8 12.9 0.00 0.00 0.00 72 1014.0
20260904184611 23 245 6.4 12.9 0.00 0.00 0.00 72 1014.1
20260904184034 22 274 4.8 11.3 0.00 0.00 0.00 72 1014.1
20260904183532 22 203 4.8 14.5 0.00 0.00 0.00 72 1014.0
20260904183057 22 266 4.8 14.5 0.00 0.00 0.00 72 1014.0
20260904182536 22 239 3.2 11.3 0.00 0.00 0.00 73 1014.1
20260904182035 22 253 4.8 11.3 0.00 0.00 0.00 73 1014.1
20260904181603 22 214 4.8 11.3 0.00 0.00 0.00 73 1014.1
20260904181045 22 302 4.8 14.5 0.00 0.00 0.00 74 1014.0
20260904180537 22 284 4.8 14.5 0.00 0.00 0.00 75 1014.0
20260904180053 22 295 6.4 14.5 0.00 0.00 0.00 74 1014.1
20260904175532 22 305 4.8 9.7 0.00 0.00 0.00 74 1014.1
20260904175035 21 250 3.2 12.9 0.00 0.00 0.00 74 1014.2
20260904174552 21 237 4.8 12.9 0.00 0.00 0.00 74 1014.2
20260904174037 21 269 3.2 12.9 0.00 0.00 0.00 75 1014.2
20260904173532 21 208 4.8 11.3 0.00 0.00 0.00 75 1014.2
20260904173110 21 284 3.2 9.7 0.00 0.00 0.00 75 1014.1
20260904172535 21 264 1.6 9.7 0.00 0.00 0.00 75 1014.2
20260904172035 21 0 3.2 11.3 0.00 0.00 0.00 75 1014.2
20260904171552 21 258 4.8 11.3 0.00 0.00 0.00 76 1014.2
20260904171032 21 252 3.2 11.3 0.00 0.00 0.00 78 1014.3
20260904170535 20 321 4.8 11.3 0.00 0.00 0.00 77 1014.4
20260904170053 20 294 3.2 9.7 0.00 0.00 0.00 78 1014.3
20260904165537 20 241 4.8 9.7 0.00 0.00 0.00 79 1014.1
20260904165033 20 233 3.2 9.7 0.00 0.00 0.00 79 1014.1
20260904164602 20 290 3.2 9.7 0.00 0.00 0.00 79 1014.1
20260904164037 20 262 3.2 9.7 0.00 0.00 0.00 79 1014.1
20260904163532 20 243 0.0 8.0 0.00 0.00 0.00 80 1014.0
20260904163057 20 236 0.0 6.4 0.00 0.00 0.00 80 1013.9
20260904162532 19 225 3.2 6.4 0.00 0.00 0.00 80 1013.8
20260904162034 19 278 1.6 6.4 0.00 0.00 0.00 81 1013.8
20260904161555 19 0 1.6 6.4 0.00 0.00 0.00 81 1013.9
20260904161034 19 225 1.6 6.4 0.00 0.00 0.00 82 1013.8
20260904160532 18 250 0.0 6.4 0.00 0.00 0.00 82 1013.8
20260904160050 18 0 1.6 6.4 0.00 0.00 0.00 82 1013.8
20260904155535 18 0 0.0 6.4 0.00 0.00 0.00 83 1013.7
20260904155032 18 284 1.6 4.8 0.00 0.00 0.00 83 1013.6
20260904154620 18 0 0.0 3.2 0.00 0.00 0.00 83 1013.6
20260904154032 18 0 0.0 3.2 0.00 0.00 0.00 84 1013.5
20260904153534 18 0 0.0 1.6 0.00 0.00 0.00 84 1013.4
20260904153056 18 0 0.0 1.6 0.00 0.00 0.00 85 1013.5
20260904152535 18 0 0.0 3.2 0.00 0.00 0.00 85 1013.4
20260904152031 18 0 0.0 3.2 0.00 0.00 0.00 85 1013.4
20260904151606 18 0 0.0 3.2 0.00 0.00 0.00 86 1013.4
20260904151033 17 0 0.0 3.2 0.00 0.00 0.00 86 1013.4
20260904150531 17 0 0.0 3.2 0.00 0.00 0.00 87 1013.4
20260904150059 17 0 0.0 3.2 0.00 0.00 0.00 87 1013.4
20260904145532 17 0 0.0 1.6 0.00 0.00 0.00 88 1013.4
20260904145032 17 0 0.0 1.6 0.00 0.00 0.00 88 1013.4
20260904144558 17 0 0.0 1.6 0.00 0.00 0.00 88 1013.4
20260904144035 17 0 0.0 1.6 0.00 0.00 0.00 88 1013.3
20260904143532 17 0 0.0 1.6 0.00 0.00 0.00 88 1013.3
20260904143054 17 0 0.0 0.0 0.00 0.00 0.00 88 1013.3
20260904142538 17 0 0.0 0.0 0.00 0.00 0.00 88 1013.2
20260904142032 16 0 0.0 0.0 0.00 0.00 0.00 88 1013.2
20260904141624 16 0 0.0 0.0 0.00 0.00 0.00 88 1013.1
20260904141035 16 0 0.0 1.6 0.00 0.00 0.00 88 1013.2
20260904140532 16 0 0.0 1.6 0.00 0.00 0.00 88 1013.1
20260904140109 16 0 0.0 0.0 0.00 0.00 0.00 88 1013.0
20260904135532 16 0 0.0 0.0 0.00 0.00 0.00 88 1013.0
20260904135035 16 0 0.0 0.0 0.00 0.00 0.00 88 1012.9
20260904134616 16 0 0.0 1.6 0.00 0.00 0.00 88 1012.9
20260904134032 16 0 0.0 1.6 0.00 0.00 0.00 88 1012.8
20260904133531 16 0 0.0 0.0 0.00 0.00 0.00 88 1012.8
20260904133108 16 0 0.0 0.0 0.00 0.00 0.00 88 1012.7
20260904132535 16 0 0.0 0.0 0.00 0.00 0.00 87 1012.8
20260904132034 16 0 0.0 0.0 0.00 0.00 0.00 87 1012.7
20260904131614 16 0 0.0 0.0 0.00 0.00 0.00 87 1012.8
20260904131036 16 0 0.0 0.0 0.00 0.00 0.00 87 1012.7
20260904130532 16 0 0.0 0.0 0.00 0.00 0.00 87 1012.7
20260904125533 16 0 0.0 1.6 0.00 0.00 0.00 87 1012.6
20260904125035 16 0 0.0 1.6 0.00 0.00 0.00 87 1012.7
20260904124602 16 0 0.0 0.0 0.00 0.00 0.00 87 1012.7
20260904124034 17 0 0.0 0.0 0.00 0.00 0.00 87 1012.5
20260904123535 17 0 0.0 0.0 0.00 0.00 0.00 87 1012.5
20260904123121 17 0 0.0 1.6 0.00 0.00 0.00 87 1012.5
20260904122531 17 0 0.0 1.6 0.00 0.00 0.00 87 1012.5
20260904122031 17 0 0.0 0.0 0.00 0.00 0.00 87 1012.5
20260904121554 17 0 0.0 0.0 0.00 0.00 0.00 87 1012.5
20260904121034 17 0 0.0 0.0 0.00 0.00 0.00 87 1012.5
20260904120530 17 0 0.0 0.0 0.00 0.00 0.00 87 1012.4
20260904120055 17 0 0.0 0.0 0.00 0.00 0.00 87 1012.4
20260904115531 17 0 0.0 0.0 0.00 0.00 0.00 87 1012.5
20260904115035 17 0 0.0 0.0 0.00 0.00 0.00 87 1012.5
20260904114552 17 0 0.0 0.0 0.00 0.00 0.00 87 1012.6
20260904114035 17 0 0.0 0.0 0.00 0.00 0.00 87 1012.7
20260904113533 17 0 0.0 0.0 0.00 0.00 0.00 87 1012.7
20260904113103 17 0 0.0 0.0 0.00 0.00 0.00 88 1012.7
20260904112532 17 0 0.0 0.0 0.00 0.00 0.00 88 1012.6
20260904112035 17 0 0.0 1.6 0.00 0.00 0.00 88 1012.7
20260904111556 17 0 0.0 1.6 0.00 0.00 0.00 88 1012.7
20260904111034 17 0 0.0 1.6 0.00 0.00 0.00 88 1012.7
20260904110534 17 0 0.0 1.6 0.00 0.00 0.00 88 1012.7
20260904110052 17 0 0.0 1.6 0.00 0.00 0.00 88 1012.7
20260904105535 17 0 0.0 1.6 0.00 0.00 0.00 89 1012.7
20260904105034 17 0 0.0 1.6 0.00 0.00 0.00 89 1012.7
20260904104602 17 0 0.0 1.6 0.00 0.00 0.00 89 1012.7
20260904104032 17 0 0.0 1.6 0.00 0.00 0.00 89 1012.6
20260904103531 17 0 0.0 1.6 0.00 0.00 0.00 89 1012.6
20260904103106 17 0 0.0 1.6 0.00 0.00 0.00 89 1012.5
20260904102531 17 0 0.0 1.6 0.00 0.00 0.00 89 1012.5
20260904102032 17 0 0.0 1.6 0.00 0.00 0.00 89 1012.4
20260904101556 17 0 0.0 1.6 0.00 0.00 0.00 89 1012.4
20260904101030 17 0 0.0 1.6 0.00 0.00 0.00 89 1012.3
20260904100535 17 0 0.0 1.6 0.00 0.00 0.00 89 1012.4
20260904095533 17 0 0.0 1.6 0.00 0.00 0.00 88 1012.4
20260904095031 17 0 0.0 1.6 0.00 0.00 0.00 88 1012.4
20260904094553 17 0 0.0 1.6 0.00 0.00 0.00 88 1012.4
20260904094031 17 0 0.0 1.6 0.00 0.00 0.00 88 1012.4
20260904093533 17 0 0.0 1.6 0.00 0.00 0.00 88 1012.3
20260904093100 17 0 0.0 1.6 0.00 0.00 0.00 88 1012.3
20260904092531 17 0 0.0 1.6 0.00 0.00 0.00 88 1012.3
20260904092031 17 0 0.0 0.0 0.00 0.00 0.00 87 1012.2
20260904091556 17 0 0.0 0.0 0.00 0.00 0.00 87 1012.3
20260904091032 17 0 0.0 0.0 0.00 0.00 0.00 87 1012.3
20260904090532 17 0 0.0 1.6 0.00 0.00 0.00 87 1012.2
20260904090054 17 0 0.0 1.6 0.00 0.00 0.00 87 1012.2